This is the latest recevied weather packets stored in our database for station/object IZ1UQG-N2. If no packets are shown the sender has not sent any weather packets the latest 10 day(s).
| Time | Temp. | Humidity | Pressure | Rain* | Wind** | Luminosity | Snow |
|---|---|---|---|---|---|---|---|
| 1787616160 | 17.78° C | 91% | 1011.1 hPa | 15.75 mm | - | 0 W/m² | - |
| 1787616102 | 17.78° C | 92% | 1011.1 hPa | 19.56 mm | - | 0 W/m² | - |
| 1787616042 | 17.78° C | 91% | 1011.1 hPa | 22.86 mm | - | 0 W/m² | - |
| 1787615981 | 17.78° C | 92% | 1011.2 hPa | 22.61 mm | - | 0 W/m² | - |
| 1787615921 | 17.78° C | 92% | 1011.3 hPa | 29.97 mm | - | 0 W/m² | - |
| 1787615861 | 17.78° C | 92% | 1011.4 hPa | 29.72 mm | - | 0 W/m² | - |
| 1787615801 | 17.78° C | 92% | 1011.4 hPa | 33.02 mm | - | 0 W/m² | - |
| 1787615740 | 17.78° C | 92% | 1011.5 hPa | 32.77 mm | - | 0 W/m² | - |
| 1787615680 | 17.78° C | 92% | 1011.5 hPa | 34.29 mm | - | 0 W/m² | - |
| 1787615622 | 17.78° C | 92% | 1011.7 hPa | 36.07 mm | - | 0 W/m² | - |
| 1787615561 | 17.78° C | 92% | 1011.7 hPa | 39.12 mm | - | 0 W/m² | - |
| 1787615502 | 17.78° C | 92% | 1011.8 hPa | 38.1 mm | - | 0 W/m² | - |
| 1787615441 | 17.78° C | 92% | 1011.9 hPa | 40.39 mm | - | 0 W/m² | - |
| 1787615381 | 17.78° C | 92% | 1012 hPa | 39.88 mm | - | 0 W/m² | - |
| 1787615321 | 17.78° C | 92% | 1011.9 hPa | 40.39 mm | - | 0 W/m² | - |
| 1787615261 | 17.78° C | 92% | 1011.8 hPa | 41.66 mm | - | 0 W/m² | - |
| 1787615200 | 17.78° C | 92% | 1011.7 hPa | 43.18 mm | - | 0 W/m² | - |
| 1787615140 | 17.78° C | 92% | 1011.7 hPa | 45.47 mm | - | 0 W/m² | - |
| 1787615080 | 17.78° C | 92% | 1011.6 hPa | 45.21 mm | - | 0 W/m² | - |
| 1787615021 | 17.78° C | 92% | 1011.6 hPa | 47.75 mm | - | 0 W/m² | - |
| 1787614961 | 17.78° C | 92% | 1011.5 hPa | 47.75 mm | - | 0 W/m² | - |
| 1787614901 | 17.78° C | 92% | 1011.4 hPa | 48.51 mm | - | 0 W/m² | - |
| 1787614841 | 17.78° C | 92% | 1011.5 hPa | 49.28 mm | - | 0 W/m² | - |
| 1787614781 | 17.78° C | 92% | 1011.5 hPa | 51.31 mm | - | 0 W/m² | - |
| 1787614721 | 17.78° C | 92% | 1011.6 hPa | 51.05 mm | - | 0 W/m² | - |
* Rain latest hour (hover to see other rain measurements)
** Current wind speed in m/s (hover to see current wind gust speed)